| time (UTC) | temp F | wind direction | speed MPH | gust MPH | rain 1hr in | rain 24hr in | rain mn in | humidity % | barometer mb |
| 20260508110030 | 43 | 25 | 0.0 | 0.0 | 0.00 | 0.00 | 0.00 | 89 | 1002.6 |
| 20260508104527 | 43 | 42 | 1.0 | 0.0 | 0.00 | 0.00 | 0.00 | 86 | 1002.1 |
| 20260508103026 | 45 | 202 | 0.0 | 0.0 | 0.00 | 0.00 | 0.00 | 85 | 1001.1 |
| 20260508101524 | 45 | 174 | 1.0 | 0.0 | 0.00 | 0.00 | 0.00 | 85 | 1000.9 |
| 20260508100022 | 46 | 196 | 1.0 | 0.0 | 0.00 | 0.00 | 0.00 | 85 | 1001.0 |
| 20260508094523 | 46 | 218 | 0.0 | 0.0 | 0.00 | 0.00 | 0.00 | 86 | 1001.0 |
| 20260508093023 | 46 | 223 | 0.0 | 0.0 | 0.00 | 0.00 | 0.00 | 85 | 1001.1 |
| 20260508091523 | 46 | 240 | 2.0 | 0.0 | 0.00 | 0.00 | 0.00 | 85 | 1001.3 |
| 20260508090020 | 45 | 219 | 1.0 | 0.0 | 0.00 | 0.00 | 0.00 | 84 | 1001.1 |
| 20260508084517 | 46 | 252 | 1.0 | 0.0 | 0.00 | 0.00 | 0.00 | 83 | 1001.1 |
| 20260508083014 | 47 | 256 | 0.0 | 0.0 | 0.00 | 0.00 | 0.00 | 83 | 1001.3 |
| 20260508081513 | 47 | 52 | 1.0 | 0.0 | 0.00 | 0.00 | 0.00 | 82 | 1001.2 |
| 20260508080010 | 47 | 329 | 0.0 | 0.0 | 0.00 | 0.00 | 0.00 | 80 | 1000.7 |
| 20260508074509 | 47 | 25 | 1.0 | 0.0 | 0.00 | 0.00 | 0.00 | 78 | 1000.8 |
| 20260508073009 | 49 | 281 | 0.0 | 0.0 | 0.00 | 0.00 | 0.00 | 74 | 1000.5 |
| 20260508071506 | 49 | 127 | 1.0 | 0.0 | 0.00 | 0.00 | 0.00 | 75 | 1000.5 |
| 20260508070002 | 49 | 209 | 1.0 | 0.0 | 0.00 | 0.00 | 0.00 | 73 | 1001.6 |
| 20260508064559 | 51 | 133 | 0.0 | 0.0 | 0.00 | 0.00 | 0.00 | 71 | 1001.4 |
| 20260508063103 | 51 | 135 | 0.0 | 0.0 | 0.00 | 0.00 | 0.00 | 70 | 1001.3 |
| 20260508061559 | 52 | 137 | 2.0 | 0.0 | 0.00 | 0.00 | 0.00 | 68 | 1000.8 |
| 20260508060053 | 52 | 13 | 2.0 | 0.0 | 0.00 | 0.00 | 0.00 | 67 | 1001.4 |
| 20260508054550 | 52 | 13 | 3.0 | 0.0 | 0.00 | 0.00 | 0.00 | 67 | 1001.9 |
| 20260508053059 | 52 | 250 | 2.0 | 0.0 | 0.00 | 0.00 | 0.00 | 65 | 1000.9 |
| 20260508051547 | 53 | 237 | 0.0 | 0.0 | 0.00 | 0.00 | 0.00 | 63 | 1000.7 |
| 20260508050042 | 54 | 79 | 1.0 | 0.0 | 0.00 | 0.00 | 0.00 | 61 | 1005.5 |
| 20260508044540 | 55 | 86 | 2.0 | 0.0 | 0.00 | 0.00 | 0.00 | 60 | 1005.5 |
| 20260508043046 | 55 | 39 | 4.0 | 0.0 | 0.00 | 0.00 | 0.00 | 59 | 1005.5 |
| 20260508041536 | 56 | 333 | 1.0 | 0.0 | 0.00 | 0.00 | 0.00 | 56 | 1005.6 |
| 20260508040036 | 56 | 48 | 0.0 | 0.0 | 0.00 | 0.00 | 0.00 | 56 | 1004.9 |
| 20260508034536 | 56 | 333 | 1.0 | 0.0 | 0.00 | 0.00 | 0.00 | 54 | 1004.5 |
| 20260508033031 | 57 | 300 | 2.0 | 0.0 | 0.00 | 0.00 | 0.00 | 53 | 1004.5 |
| 20260508031529 | 57 | 298 | 0.0 | 0.0 | 0.00 | 0.00 | 0.00 | 52 | 1004.5 |
| 20260508030027 | 58 | 312 | 2.0 | 0.0 | 0.00 | 0.00 | 0.00 | 51 | 1004.3 |
| 20260508024528 | 59 | 347 | 5.0 | 0.0 | 0.00 | 0.00 | 0.00 | 49 | 1004.5 |
| 20260508023022 | 59 | 309 | 7.0 | 0.0 | 0.00 | 0.00 | 0.00 | 47 | 1004.2 |
| 20260508021518 | 60 | 347 | 4.0 | 0.0 | 0.00 | 0.00 | 0.00 | 44 | 1003.9 |
| 20260508020020 | 62 | 329 | 1.0 | 0.0 | 0.00 | 0.00 | 0.00 | 43 | 1003.3 |
| 20260508014517 | 62 | 281 | 4.0 | 0.0 | 0.00 | 0.00 | 0.00 | 43 | 1002.8 |
| 20260508013016 | 64 | 167 | 1.0 | 0.0 | 0.00 | 0.00 | 0.00 | 40 | 1002.1 |
| 20260508011514 | 64 | 140 | 1.0 | 0.0 | 0.00 | 0.00 | 0.00 | 35 | 1001.8 |
| 20260508010015 | 64 | 164 | 3.0 | 0.0 | 0.00 | 0.00 | 0.00 | 36 | 1001.9 |
| 20260508004513 | 63 | 252 | 0.0 | 0.0 | 0.00 | 0.00 | 0.00 | 42 | 1001.9 |
| 20260508003014 | 63 | 117 | 2.0 | 0.0 | 0.00 | 0.00 | 0.00 | 39 | 1001.4 |
| 20260508001512 | 64 | 112 | 0.0 | 0.0 | 0.00 | 0.00 | 0.00 | 38 | 1001.8 |
| 20260508000012 | 64 | 107 | 1.0 | 0.0 | 0.00 | 0.00 | 0.00 | 39 | 1001.5 |
| 20260507234511 | 64 | 121 | 2.0 | 0.0 | 0.00 | 0.00 | 0.00 | 38 | 1001.2 |
| 20260507233012 | 65 | 148 | 2.0 | 0.0 | 0.00 | 0.00 | 0.00 | 37 | 1001.4 |
| 20260507231510 | 66 | 177 | 1.0 | 0.0 | 0.00 | 0.00 | 0.00 | 35 | 1001.2 |
| 20260507230010 | 67 | 156 | 0.0 | 0.0 | 0.00 | 0.00 | 0.00 | 32 | 1001.2 |
| 20260507224515 | 68 | 84 | 1.0 | 0.0 | 0.00 | 0.00 | 0.00 | 33 | 1001.1 |
| 20260507223009 | 67 | 51 | 2.0 | 0.0 | 0.00 | 0.00 | 0.00 | 33 | 1001.1 |
| 20260507221511 | 67 | 311 | 5.0 | 0.0 | 0.00 | 0.00 | 0.00 | 33 | 1001.2 |
| 20260507220008 | 67 | 278 | 2.0 | 0.0 | 0.00 | 0.00 | 0.00 | 34 | 1001.5 |
| 20260507214520 | 68 | 308 | 6.0 | 0.0 | 0.00 | 0.00 | 0.00 | 32 | 1001.8 |
| 20260507213006 | 67 | 283 | 7.0 | 0.0 | 0.00 | 0.00 | 0.00 | 32 | 1002.0 |
| 20260507211507 | 69 | 335 | 8.0 | 0.0 | 0.00 | 0.00 | 0.00 | 31 | 1002.0 |
| 20260507210006 | 70 | 320 | 7.0 | 0.0 | 0.00 | 0.00 | 0.00 | 32 | 1002.1 |
| 20260507204506 | 73 | 275 | 5.0 | 0.0 | 0.00 | 0.00 | 0.00 | 30 | 1001.7 |
| 20260507203004 | 74 | 272 | 5.0 | 0.0 | 0.00 | 0.00 | 0.00 | 29 | 1001.7 |
| 20260507201502 | 73 | 262 | 5.0 | 0.0 | 0.00 | 0.00 | 0.00 | 30 | 1001.8 |
| 20260507200107 | 72 | 287 | 4.0 | 0.0 | 0.00 | 0.00 | 0.00 | 33 | 1002.3 |
| 20260507194556 | 69 | 137 | 2.0 | 0.0 | 0.00 | 0.00 | 0.00 | 36 | 1002.8 |
| 20260507193054 | 65 | 113 | 2.0 | 0.0 | 0.00 | 0.00 | 0.00 | 38 | 1004.4 |
| 20260507191552 | 63 | 87 | 2.0 | 0.0 | 0.00 | 0.00 | 0.00 | 39 | 1004.5 |
| 20260507190051 | 64 | 100 | 1.0 | 0.0 | 0.00 | 0.00 | 0.00 | 39 | 1004.5 |
| 20260507184548 | 64 | 216 | 1.0 | 0.0 | 0.00 | 0.00 | 0.00 | 40 | 1004.4 |
| 20260507183046 | 64 | 113 | 1.0 | 0.0 | 0.00 | 0.00 | 0.00 | 41 | 1004.9 |
| 20260507181544 | 63 | 198 | 1.0 | 0.0 | 0.00 | 0.00 | 0.00 | 39 | 1005.1 |
| 20260507180047 | 63 | 287 | 2.0 | 0.0 | 0.00 | 0.00 | 0.00 | 42 | 1005.1 |
| 20260507174545 | 63 | 282 | 2.0 | 0.0 | 0.00 | 0.00 | 0.00 | 41 | 1005.1 |
| 20260507173044 | 63 | 336 | 1.0 | 0.0 | 0.00 | 0.00 | 0.00 | 40 | 1005.1 |